This is the latest recevied weather packets stored in our database for station/object KF7PIZ. If no packets are shown the sender has not sent any weather packets the latest 10 day(s).
| Time | Temp. | Humidity | Pressure | Rain* | Wind** | Luminosity | Snow |
|---|---|---|---|---|---|---|---|
| 1777250764 | 15.56° C | 26% | 1009.3 hPa | 0 mm | - | 234 W/m² | - |
| 1777250461 | 16.11° C | 28% | 1009.6 hPa | 0 mm | - | 223 W/m² | - |
| 1777250156 | 16.67° C | 28% | 1009.2 hPa | 0 mm | - | 151 W/m² | - |
| 1777249853 | 16.67° C | 28% | 1009.1 hPa | 0 mm | - | 301 W/m² | - |
| 1777249549 | 16.67° C | 26% | 1009.2 hPa | 0 mm | - | 257 W/m² | - |
| 1777249246 | 16.67° C | 26% | 1009.2 hPa | 0 mm | - | 210 W/m² | - |
| 1777248943 | 17.22° C | 26% | 1009.1 hPa | 0 mm | - | 213 W/m² | - |
| 1777248639 | 16.67° C | 28% | 1009 hPa | 0 mm | - | 254 W/m² | - |
| 1777248336 | 17.22° C | 27% | 1008.9 hPa | 0 mm | - | 137 W/m² | - |
| 1777248033 | 16.11° C | 29% | 1008.9 hPa | 0 mm | - | 153 W/m² | - |
| 1777247731 | 15.56° C | 30% | 1009.1 hPa | 0 mm | - | 143 W/m² | - |
| 1777247429 | 16.67° C | 28% | 1009 hPa | 0 mm | - | 162 W/m² | - |
| 1777247126 | 15° C | 33% | 1008.9 hPa | 0 mm | - | 147 W/m² | - |
| 1777246823 | 14.44° C | 30% | 1008.5 hPa | 0 mm | - | 196 W/m² | - |
| 1777246519 | 14.44° C | 31% | 1008.9 hPa | 0 mm | - | 137 W/m² | - |
| 1777246216 | 14.44° C | 33% | 1008.6 hPa | 0 mm | - | 105 W/m² | - |
| 1777245914 | 14.44° C | 31% | 1008.6 hPa | 0 mm | - | 103 W/m² | - |
| 1777245612 | 15° C | 34% | 1008.6 hPa | 0 mm | - | 100 W/m² | - |
| 1777245309 | 15.56° C | 36% | 1008.8 hPa | 0 mm | - | 111 W/m² | - |
| 1777245003 | 15.56° C | 33% | 1008.8 hPa | 0 mm | - | 154 W/m² | - |
| 1777244699 | 16.11° C | 28% | 1008.6 hPa | 0 mm | - | 258 W/m² | - |
| 1777244396 | 15.56° C | 29% | 1008.5 hPa | 0 mm | - | 250 W/m² | - |
| 1777244093 | 15° C | 34% | 1008.6 hPa | 0 mm | - | 369 W/m² | - |
| 1777243791 | 15° C | 31% | 1008.8 hPa | 0 mm | - | 144 W/m² | - |
| 1777243487 | 15° C | 33% | 1008.8 hPa | 0 mm | - | 209 W/m² | - |
* Rain latest hour (hover to see other rain measurements)
** Current wind speed in m/s (hover to see current wind gust speed)